Showing default

QIANFAN-49, 62250

Orbit data source: Space-Track

QIANFAN-49, 62250 is a Chinese payload satellite in LEO that was launched on Thu, 05 Dec 2024 UTC via a CHANG ZHENG 6A launch vehicle from the Taiyaun Space Center, China (TSC). Payload-class satellites include a variety of spacecraft equipped with specific instruments for various scientific and technological missions. These include communications satellites like Starlink; space stations such as the ISS; scientific satellites like the Hubble; Earth observation satellites from companies like Planet Labs, Umbra, and HawkEye 360; GPS; miniature CubeSats for education and research; and military/defense satellites.

Loading next visibility...
Identifier
62250, 2024-232P
Orbit
LEO
Last TLE update
12 hours ago
Origin
Manufacturer
SECM
Mission
Operational Commercial Communications
Bus & Motor
QIANFAN, Unknown motor
Mass
267 kg wet, ~267 kg dry
Launch date (UTC)
2024-12-05 (7 months ago)
Launch vehicle
CHANG ZHENG 6A
Launch site
Taiyaun Space Center, China (TSC)
Object type
Payload
Rocket body
Debris
Shape & HBR
Box + 1 Pan, 10 m
Radar Cross Section
13.200 m², Large (>1 m²)

Expand to show TLE details & history

TLE from 12 hours ago
0 QIANFAN-49
1 62250U 24232P   25181.89742180  .00000083  00000-0  10997-3 0  9994
2 62250  88.9955  57.9181 0013133 319.1205  40.8961 13.50949569 45585
Epoch: 2025-06-30T21:32Z
TLE epoch observation values (Epoch: 2025-06-30T21:32:17.243Z)
Latitude
0.00006°
Longitude
175.64562°
Altitude
1,064.331 km
Speed
7.323 km/s
True Right ascension
03h 51m 40s
True Declination
0° 00' 00"
Sunlit
Object was in daylight at epoch
Visualization orbit readout
Latitude
-80.10995°
Longitude
1.33722°
Altitude
1,091.726 km
Speed
7.308 km/s
Apparent Right ascension
10h 08m 28s
Apparent Declination
-67° 38' 14"
Sunlit
Object is in partial shadow
Visualization observer readout
Local Sidereal Time
21:07:35
Azimuth
191.907° SSW
Elevation
-61.043°
Doppler factor
1
Orbital elements
Apogee altitude
1,075.594 km
Perigee altitude
1,056.042 km
Semi-major axis
7,443.955 km
Eccentricity
0.00131
Inclination
88.9955°
RAAN
57.9181°
Arg. of periapsis
319.1205°
True anomaly
Unknown
Mean anomaly
40.8961°
Eccentric anomaly
Unknown
Mean motion
3.37938 °/min
Orbital period
106.53 mins
BSTAR
0.00010997
Loading maneuver chart data...
Loading SW <> Apogee altitude chart data...
Loading historical data...
Loading historical data...
Loading historical data...
Loading historical data...
Loading historical data...
Loading historical data...
Loading historical data...

QIANFAN-49 Visibility forecast

Observer location: undefined°, undefined°

Span
Click to sort rows by Start time (UTC) header in descending order
Start Az.
Max El. time (UTC)
Max El. Az.
Max El.
End time (UTC)
End Az.
11 mins2025-07-01 15:25:18.230Z146.602° SSE2025-07-01 15:31:18.230Z70.921° E33.367°2025-07-01 15:36:18.230Z15.804° NNE
9 mins2025-07-01 17:13:18.230Z227.238° WSW2025-07-01 17:17:18.230Z275.516° WNW26.985°2025-07-01 17:22:18.230Z333.644° NNW
8 mins2025-07-02 02:36:18.230Z41.005° NE2025-07-02 02:40:18.230Z83.459° E18.829°2025-07-02 02:44:18.230Z121.592° SE
12 mins2025-07-02 04:21:18.230Z352.809° N2025-07-02 04:27:18.230Z253.905° W41.601°2025-07-02 04:33:18.230Z195.842° SSW
|